When you browse on this site, cookies collect data to enhance your experience and personalize the content and advertising you see.
Visit our Privacy Policy to learn more. By continuing to use the site, you agree to this use of cookies and data.
EN

Hourly Weather Balchik

Today, 7 July, Tuesday

Time Temperature Precipitation Wind Pressure Humidity
00:00 +23°C° 0 mm 1 mps 731 mmHg 82%
01:00 +23°C° 0 mm 2 mps 731 mmHg 83%
02:00 +21°C° 0 mm 2 mps 731 mmHg 84%
03:00 +21°C° 0 mm 2 mps 731 mmHg 86%
04:00 +20°C° 0 mm 2 mps 730 mmHg 87%
05:00 +20°C° 0 mm 2 mps 730 mmHg 89%
06:00 +23°C° 0 mm 2 mps 731 mmHg 83%
07:00 +25°C° 0 mm 2 mps 731 mmHg 77%
08:00 +27°C° 0 mm 2 mps 732 mmHg 70%
09:00 +28°C° 0.2 mm 3 mps 732 mmHg 66%
10:00 +29°C° 0.2 mm 3 mps 732 mmHg 61%
11:00 +30°C° 0.2 mm 4 mps 732 mmHg 56%
12:00 +32°C° 0.1 mm 4 mps 732 mmHg 54%
13:00 +32°C° 0.1 mm 4 mps 732 mmHg 52%
14:00 +33°C° 0.1 mm 4 mps 732 mmHg 50%
15:00 +32°C° 0.7 mm 5 mps 732 mmHg 55%
16:00 +29°C° 0.7 mm 5 mps 732 mmHg 61%
17:00 +28°C° 0.7 mm 6 mps 732 mmHg 67%
18:00 +26°C° 0.3 mm 7 mps 732 mmHg 73%
19:00 +23°C° 0.3 mm 7 mps 733 mmHg 79%
20:00 +21°C° 0.3 mm 7 mps 734 mmHg 86%
21:00 +18°C° 0 mm 7 mps 735 mmHg 87%
22:00 +17°C° 0 mm 7 mps 735 mmHg 88%
23:00 +16°C° 0 mm 7 mps 736 mmHg 89%

Tomorrow, 8 July, Wednesday

Time Temperature Precipitation Wind Pressure Humidity
00:00 +15°C° 0 mm 7 mps 736 mmHg 88%
01:00 +14°C° 0 mm 7 mps 737 mmHg 87%
02:00 +12°C° 0 mm 7 mps 737 mmHg 85%
03:00 +12°C° 0 mm 7 mps 737 mmHg 83%
04:00 +12°C° 0 mm 7 mps 738 mmHg 81%
05:00 +14°C° 0 mm 7 mps 738 mmHg 79%
06:00 +14°C° 0 mm 7 mps 739 mmHg 76%
07:00 +15°C° 0 mm 7 mps 739 mmHg 72%
08:00 +16°C° 0 mm 7 mps 740 mmHg 69%
09:00 +18°C° 0 mm 7 mps 740 mmHg 64%
10:00 +20°C° 0 mm 7 mps 740 mmHg 60%
11:00 +22°C° 0 mm 7 mps 740 mmHg 55%
12:00 +23°C° 0 mm 6 mps 740 mmHg 53%
13:00 +23°C° 0 mm 5 mps 740 mmHg 50%
14:00 +25°C° 0 mm 5 mps 740 mmHg 48%
15:00 +25°C° 0 mm 4 mps 740 mmHg 47%
16:00 +25°C° 0 mm 4 mps 740 mmHg 47%
17:00 +25°C° 0 mm 4 mps 740 mmHg 46%
18:00 +22°C° 0 mm 3 mps 740 mmHg 50%
19:00 +20°C° 0 mm 2 mps 740 mmHg 54%
20:00 +19°C° 0 mm 2 mps 740 mmHg 58%
21:00 +19°C° 0 mm 1 mps 740 mmHg 59%
22:00 +18°C° 0 mm 1 mps 741 mmHg 60%
23:00 +18°C° 0 mm 1 mps 741 mmHg 60%

Day after tomorrow, 9 July, Thursday

Time Temperature Precipitation Wind Pressure Humidity
00:00 +18°C° 0 mm 1 mps 741 mmHg 61%
01:00 +16°C° 0 mm 1 mps 741 mmHg 61%
02:00 +16°C° 0 mm 1 mps 741 mmHg 61%
03:00 +16°C° 0 mm 1 mps 741 mmHg 62%
04:00 +16°C° 0 mm 1 mps 741 mmHg 63%
05:00 +16°C° 0 mm 1 mps 741 mmHg 64%
06:00 +19°C° 0 mm 1 mps 741 mmHg 59%
07:00 +21°C° 0 mm 1 mps 742 mmHg 55%
08:00 +23°C° 0 mm 1 mps 742 mmHg 51%
09:00 +24°C° 0 mm 1 mps 742 mmHg 48%
10:00 +25°C° 0 mm 1 mps 742 mmHg 46%
11:00 +27°C° 0 mm 1 mps 743 mmHg 43%
12:00 +27°C° 0 mm 2 mps 742 mmHg 42%
13:00 +28°C° 0 mm 2 mps 742 mmHg 41%
14:00 +28°C° 0 mm 2 mps 742 mmHg 39%
15:00 +28°C° 0 mm 2 mps 742 mmHg 42%
16:00 +27°C° 0 mm 3 mps 742 mmHg 45%
17:00 +27°C° 0 mm 3 mps 742 mmHg 48%
18:00 +25°C° 0 mm 3 mps 742 mmHg 55%
19:00 +22°C° 0 mm 3 mps 741 mmHg 63%
20:00 +20°C° 0 mm 3 mps 741 mmHg 70%
21:00 +19°C° 0 mm 2 mps 742 mmHg 72%
22:00 +19°C° 0 mm 2 mps 742 mmHg 74%
23:00 +19°C° 0 mm 1 mps 742 mmHg 76%

10 July, Friday

Time Temperature Precipitation Wind Pressure Humidity
00:00 +19°C° 0 mm 1 mps 742 mmHg 78%
01:00 +19°C° 0 mm 1 mps 742 mmHg 79%
02:00 +19°C° 0 mm 1 mps 742 mmHg 80%
03:00 +18°C° 0 mm 1 mps 742 mmHg 80%
04:00 +18°C° 0 mm 1 mps 742 mmHg 80%
05:00 +18°C° 0 mm 1 mps 741 mmHg 80%
06:00 +19°C° 0 mm 2 mps 742 mmHg 73%
07:00 +21°C° 0 mm 3 mps 742 mmHg 67%
08:00 +23°C° 0 mm 4 mps 742 mmHg 60%
09:00 +25°C° 0 mm 5 mps 742 mmHg 57%
10:00 +26°C° 0 mm 5 mps 742 mmHg 54%
11:00 +27°C° 0 mm 5 mps 742 mmHg 51%
12:00 +28°C° 0 mm 5 mps 742 mmHg 51%
13:00 +28°C° 0 mm 5 mps 742 mmHg 50%
14:00 +28°C° 0 mm 5 mps 742 mmHg 50%
15:00 +28°C° 0 mm 5 mps 741 mmHg 50%
16:00 +27°C° 0 mm 5 mps 741 mmHg 51%
17:00 +27°C° 0 mm 5 mps 741 mmHg 52%
18:00 +25°C° 0 mm 4 mps 741 mmHg 59%
19:00 +22°C° 0 mm 4 mps 741 mmHg 66%
20:00 +20°C° 0 mm 3 mps 740 mmHg 73%
21:00 +20°C° 0 mm 3 mps 741 mmHg 77%
22:00 +19°C° 0 mm 2 mps 741 mmHg 80%
23:00 +18°C° 0 mm 2 mps 741 mmHg 84%

11 July, Saturday

Time Temperature Precipitation Wind Pressure Humidity
00:00 +18°C° 0 mm 2 mps 740 mmHg 85%
01:00 +18°C° 0 mm 2 mps 740 mmHg 87%
02:00 +18°C° 0 mm 2 mps 740 mmHg 88%
03:00 +18°C° 0 mm 2 mps 740 mmHg 89%
04:00 +18°C° 0 mm 2 mps 740 mmHg 89%
05:00 +18°C° 0 mm 2 mps 740 mmHg 90%
06:00 +20°C° 0 mm 2 mps 740 mmHg 83%
07:00 +22°C° 0 mm 3 mps 740 mmHg 76%
08:00 +25°C° 0 mm 4 mps 740 mmHg 69%
09:00 +26°C° 0 mm 4 mps 740 mmHg 63%
10:00 +27°C° 0 mm 5 mps 740 mmHg 57%
11:00 +28°C° 0 mm 5 mps 740 mmHg 51%
12:00 +29°C° 0 mm 5 mps 740 mmHg 50%
13:00 +29°C° 0 mm 5 mps 740 mmHg 50%
14:00 +29°C° 0 mm 5 mps 740 mmHg 50%
15:00 +28°C° 0 mm 5 mps 740 mmHg 51%
16:00 +28°C° 0 mm 4 mps 739 mmHg 52%
17:00 +27°C° 0 mm 4 mps 739 mmHg 54%
18:00 +26°C° 0 mm 3 mps 739 mmHg 61%
19:00 +24°C° 0 mm 3 mps 739 mmHg 69%
20:00 +21°C° 0 mm 2 mps 739 mmHg 76%
21:00 +20°C° 0 mm 2 mps 739 mmHg 79%
22:00 +19°C° 0 mm 2 mps 739 mmHg 82%
23:00 +20°C° 0 mm 1 mps 739 mmHg 85%

12 July, Sunday

Time Temperature Precipitation Wind Pressure Humidity
00:00 +19°C° 0 mm 1 mps 739 mmHg 84%
01:00 +19°C° 0 mm 1 mps 739 mmHg 83%
02:00 +19°C° 0 mm 1 mps 738 mmHg 83%
03:00 +19°C° 0 mm 1 mps 738 mmHg 81%
04:00 +19°C° 0 mm 1 mps 738 mmHg 80%
05:00 +19°C° 0 mm 1 mps 738 mmHg 79%
06:00 +20°C° 0 mm 2 mps 739 mmHg 73%
07:00 +23°C° 0 mm 2 mps 739 mmHg 66%
08:00 +25°C° 0 mm 3 mps 739 mmHg 60%
09:00 +26°C° 0 mm 3 mps 739 mmHg 56%
10:00 +28°C° 0 mm 3 mps 740 mmHg 52%
11:00 +29°C° 0 mm 4 mps 740 mmHg 47%
12:00 +29°C° 0 mm 3 mps 740 mmHg 49%
13:00 +29°C° 0 mm 3 mps 739 mmHg 50%
14:00 +29°C° 0 mm 3 mps 739 mmHg 51%
15:00 +29°C° 0.2 mm 3 mps 739 mmHg 55%
16:00 +28°C° 0.2 mm 3 mps 739 mmHg 58%
17:00 +28°C° 0.2 mm 3 mps 739 mmHg 61%
18:00 +26°C° 0.3 mm 3 mps 739 mmHg 67%
19:00 +25°C° 0.3 mm 4 mps 739 mmHg 73%
20:00 +22°C° 0.3 mm 4 mps 739 mmHg 80%
21:00 +21°C° 0 mm 5 mps 740 mmHg 80%
22:00 +20°C° 0 mm 5 mps 740 mmHg 81%
23:00 +19°C° 0 mm 6 mps 740 mmHg 81%
Show more